Tracking 35274 objects as of 11-Sep-2026
HD Live streaming from Space Station
objects crossing your sky now

STARLINK-11346

Track STARLINK-11346 now!
10-day predictions
STARLINK-11346 is classified as:


NORAD ID: 61697
Int'l Code: 2024-195L
Launch date: October 30, 2024
Source: United States (US)
Launch site: AIR FORCE WESTERN TEST RANGE (AFWTR)
Your satellite tracking list
Your tracking list is empty




NASA's NSSDC Master Catalog

Two Line Element Set (TLE):
1 61697U 24195L   26254.52202017  .00000162  00000-0  62000-5 0  9990
2 61697  53.1595 189.9553 0001693  85.8569 274.2642 15.69710809108225
Source of the keplerian elements: AFSPC